This demonstration page uses our WeatherBlox Daily Observations layout. Learn more.

Left ArrowRight Arrow

Hourly Observations for April 4, 2018

Temp ( °F °C ) Dew Point ( °F °C ) Humidity (%) Winds ( mph kmh ) Pressure ( in mb ) Visibility ( mi km ) Precip ( " mm )
12:59 am 00:59 Partly Cloudy 69 20.6 62 16.7 78 78 S 12 19 29.85 1011 10 16 0.00 0.00
1:59 am 01:59 Mostly Cloudy 68 20 62 16.7 81 81 S 13 20 29.83 1010 10 16 0.00 0.00
2:59 am 02:59 Mostly Cloudy 68 20 62 16.7 81 81 SSW 15 24 29.81 1010 10 16 0.00 0.00
3:59 am 03:59 Mostly Cloudy 68 20 62 16.7 81 81 S 17 28 29.80 1009 10 16 0.00 0.00
4:59 am 04:59 Mostly Cloudy 68 20 62 16.7 81 81 SSW 14 22 29.78 1009 10 16 0.00 0.00
5:59 am 05:59 Partly Cloudy 68 20 62 16.7 81 81 S 13 20 29.76 1008 10 16 0.00 0.00
6:59 am 06:59 Partly Cloudy 69 20.6 61 16.1 76 76 SSW 14 22 29.75 1008 10 16 0.00 0.00
7:59 am 07:59 Partly Cloudy 70 21.1 62 16.7 76 76 SSW 20 31 29.74 1007 10 16 0.00 0.00
8:59 am 08:59 Partly Cloudy 71 21.7 62 16.7 73 73 SSW 21 33 29.73 1007 10 16 0.00 0.00
9:59 am 09:59 Cloudy 73 22.8 62 16.7 69 69 SW 20 31 29.70 1006 10 16 0.00 0.00
10:59 am 10:59 Mostly Cloudy 75 23.9 62 16.7 64 64 SSW 18 30 29.66 1004 10 16 0.00 0.00
11:59 am 11:59 Mostly Cloudy 76 24.4 62 16.7 62 62 SSW 18 30 29.64 1004 10 16 0.00 0.00
12:59 pm 12:59 Mostly Cloudy with Light Rain 72 22.2 63 17.2 73 73 WSW 17 28 29.63 1003 7 11 0.01 0.25
1:59 pm 13:59 Mostly Cloudy 78 25.6 62 16.7 58 58 SW 18 30 29.61 1003 10 16 0.01 0.25
2:59 pm 14:59 Mostly Cloudy 79 26.1 57 13.9 47 47 WSW 23 37 29.59 1002 10 16 0.00 0.00
3:59 pm 15:59 Cloudy 75 23.9 57 13.9 54 54 W 21 33 29.61 1003 10 16 0.00 0.00
4:59 pm 16:59 Cloudy 68 20 36 2.2 31 31 W 23 37 29.70 1006 10 16 0.00 0.00
5:59 pm 17:59 Mostly Cloudy 66 18.9 32 0 28 28 NW 23 37 29.74 1007 10 16 0.00 0.00
6:59 pm 18:59 Mostly Cloudy 64 17.8 27 -2.8 25 25 WNW 18 30 29.80 1009 10 16 0.00 0.00
7:59 pm 19:59 Mostly Cloudy 62 16.7 25 -3.9 24 24 NW 17 28 29.85 1011 10 16 0.00 0.00
8:59 pm 20:59 Mostly Cloudy 60 15.6 22 -5.6 23 23 NW 14 22 29.91 1013 10 16 0.00 0.00
9:59 pm 21:59 Partly Cloudy 55 12.8 30 -1.1 38 38 NNW 17 28 29.97 1015 10 16 0.00 0.00
10:59 pm 22:59 Clear 53 11.7 25 -3.9 34 34 NNW 20 31 30.00 1016 10 16 0.00 0.00
11:59 pm 23:59 Clear 50 10 21 -6.1 32 32 NW 20 31 30.03 1017 10 16 0.00 0.00

Powered by AerisWeather